TAIP08 YBOK-YBOK

Flight info

Callsign TAIP08
Flight time N/A
Altitude 3500
Route VFR
Aircraft EC35/L-G/C

Departure

Time 2026-04-26 20:10
Airport Oakey Army Aviation Centre (YBOK)

Arrival

Time N/A
Airport Oakey Army Aviation Centre (YBOK)
Time Latitude Longitude Altitude Speed Heading
2026-04-26 20:06 -27.41250 151.73106 1331 ft 0 kts 360°
2026-04-26 20:08 -27.41246 151.73112 1361 ft 5 kts
2026-04-26 20:09 -27.41082 151.73218 1484 ft 50 kts 20°
2026-04-26 20:09 -27.40727 151.73483 1620 ft 71 kts 28°
2026-04-26 20:09 -27.40327 151.73807 1593 ft 72 kts 31°
2026-04-26 20:09 -27.39937 151.74159 1595 ft 73 kts 61°
2026-04-26 20:10 -27.39918 151.74691 1785 ft 68 kts 103°
2026-04-26 20:10 -27.40011 151.75215 2166 ft 68 kts 104°
2026-04-26 20:10 -27.40124 151.75764 2539 ft 79 kts 103°
2026-04-26 20:10 -27.40254 151.76331 2922 ft 72 kts 105°
2026-04-26 20:11 -27.40366 151.76874 3291 ft 71 kts 104°
2026-04-26 20:11 -27.40475 151.77406 3533 ft 69 kts 103°
2026-04-26 20:11 -27.40575 151.77927 3628 ft 68 kts 103°
2026-04-26 20:12 -27.40763 151.78970 3690 ft 68 kts 103°
2026-04-26 20:12 -27.40853 151.79482 3698 ft 67 kts 103°
2026-04-26 20:12 -27.40952 151.80030 3701 ft 75 kts 103°
2026-04-26 20:12 -27.41023 151.80415 3705 ft 74 kts 103°
2026-04-26 20:13 -27.41159 151.81162 3706 ft 74 kts 103°
2026-04-26 20:13 -27.41227 151.81544 3707 ft 74 kts 103°
2026-04-26 20:13 -27.41326 151.82102 3708 ft 74 kts 103°
2026-04-26 20:13 -27.41461 151.82860 3709 ft 74 kts 103°
2026-04-26 20:14 -27.41529 151.83235 3709 ft 74 kts 103°
2026-04-26 20:14 -27.41631 151.83803 3707 ft 74 kts 103°
2026-04-26 20:14 -27.41733 151.84363 3710 ft 74 kts 103°
2026-04-26 20:14 -27.41836 151.84928 3706 ft 74 kts 103°
2026-04-26 20:15 -27.41938 151.85493 3707 ft 74 kts 103°
2026-04-26 20:15 -27.42040 151.86057 3708 ft 73 kts 103°
2026-04-26 20:15 -27.42144 151.86636 3695 ft 82 kts 104°
2026-04-26 20:15 -27.42288 151.87335 3711 ft 101 kts 103°
2026-04-26 20:16 -27.42460 151.88132 3714 ft 107 kts 103°
2026-04-26 20:16 -27.42634 151.88945 3709 ft 107 kts 103°
2026-04-26 20:16 -27.42806 151.89770 3711 ft 109 kts 103°
2026-04-26 20:16 -27.42973 151.90596 3710 ft 108 kts 103°
2026-04-26 20:17 -27.43136 151.91421 3707 ft 107 kts 103°
2026-04-26 20:17 -27.43299 151.92244 3707 ft 108 kts 103°
2026-04-26 20:17 -27.43469 151.93070 3710 ft 108 kts 104°
2026-04-26 20:17 -27.43632 151.93888 3703 ft 109 kts 104°
2026-04-26 20:18 -27.43784 151.94719 3710 ft 108 kts 103°
2026-04-26 20:18 -27.43934 151.95558 3711 ft 110 kts 103°
2026-04-26 20:18 -27.44084 151.96406 3710 ft 110 kts 103°
2026-04-26 20:18 -27.44234 151.97255 3713 ft 110 kts 103°
2026-04-26 20:19 -27.44380 151.98094 3710 ft 111 kts 103°
2026-04-26 20:19 -27.44527 151.98949 3710 ft 111 kts 104°
2026-04-26 20:19 -27.44812 151.99753 3711 ft 110 kts 118°
2026-04-26 20:19 -27.45187 152.00493 3718 ft 110 kts 120°
2026-04-26 20:20 -27.45572 152.01237 3710 ft 109 kts 120°
2026-04-26 20:20 -27.45959 152.01975 3710 ft 110 kts 120°
2026-04-26 20:20 -27.46349 152.02717 3708 ft 110 kts 120°
2026-04-26 20:20 -27.46739 152.03456 3710 ft 110 kts 120°
2026-04-26 20:21 -27.47130 152.04194 3711 ft 109 kts 120°
2026-04-26 20:21 -27.47523 152.04934 3712 ft 110 kts 120°
2026-04-26 20:21 -27.47914 152.05667 3712 ft 110 kts 120°
2026-04-26 20:21 -27.48309 152.06410 3713 ft 110 kts 120°
2026-04-26 20:22 -27.48703 152.07150 3712 ft 110 kts 120°
2026-04-26 20:22 -27.49098 152.07891 3712 ft 110 kts 120°
2026-04-26 20:22 -27.49494 152.08632 3711 ft 110 kts 120°
2026-04-26 20:22 -27.49885 152.09360 3712 ft 109 kts 120°
2026-04-26 20:23 -27.50224 152.10126 3709 ft 111 kts 106°
2026-04-26 20:23 -27.50321 152.10991 3711 ft 112 kts 97°
2026-04-26 20:23 -27.50367 152.11863 3710 ft 111 kts 97°
2026-04-26 20:23 -27.50407 152.12737 3716 ft 112 kts 96°
2026-04-26 20:24 -27.50445 152.13610 3715 ft 111 kts 96°
2026-04-26 20:24 -27.50481 152.14480 3713 ft 111 kts 96°
2026-04-26 20:24 -27.50605 152.15315 3710 ft 110 kts 115°
2026-04-26 20:24 -27.51092 152.15976 3714 ft 110 kts 133°
2026-04-26 20:25 -27.51649 152.16573 3709 ft 110 kts 134°
2026-04-26 20:25 -27.52016 152.16971 3711 ft 111 kts 133°
2026-04-26 20:25 -27.52744 152.17793 3714 ft 110 kts 131°
2026-04-26 20:25 -27.53272 152.18410 3715 ft 110 kts 131°
2026-04-26 20:26 -27.53792 152.19043 3513 ft 109 kts 129°
2026-04-26 20:26 -27.54288 152.19672 3132 ft 107 kts 130°
2026-04-26 20:26 -27.54787 152.20309 2761 ft 109 kts 131°
2026-04-26 20:26 -27.55289 152.20955 2378 ft 110 kts 131°
2026-04-26 20:27 -27.55791 152.21600 2004 ft 111 kts 131°
2026-04-26 20:27 -27.56314 152.22270 1674 ft 116 kts 133°
2026-04-26 20:27 -27.56802 152.22992 1528 ft 116 kts 118°
2026-04-26 20:27 -27.56976 152.23796 1457 ft 100 kts 101°
2026-04-26 20:28 -27.57055 152.24580 1161 ft 101 kts 99°
2026-04-26 20:28 -27.57182 152.25346 1034 ft 93 kts 119°
2026-04-26 20:28 -27.57567 152.25801 1031 ft 73 kts 148°
2026-04-26 20:28 -27.58010 152.26018 826 ft 62 kts 191°
2026-04-26 20:29 -27.58362 152.25906 688 ft 44 kts 201°
2026-04-26 20:29 -27.58605 152.25814 593 ft 31 kts 204°
2026-04-26 20:29 -27.58760 152.25759 495 ft 16 kts 198°
2026-04-26 20:29 -27.58806 152.25747 454 ft 2 kts 202°
2026-04-26 20:30 -27.58809 152.25742 446 ft 1 kts 202°
2026-04-26 20:30 -27.58811 152.25738 444 ft 1 kts 202°
2026-04-26 20:30 -27.58812 152.25734 439 ft 1 kts 201°
2026-04-26 20:30 -27.58811 152.25730 439 ft 0 kts 200°